User: anonymous   Login
Location: Simi Valley
(34.2690°N, 118.7810°W)
Time: 08:14:34
(UTC-07:00)
Language:

SAR-Lupe-1 - Orbit

View from above orbital plane
View from above orbital plane
View from above satellite
View from above satellite

Ground track
Ground track

The orbit data is extracted from the following two-line orbital elements,

1 29658U 06060A   17086.81557525 0.00000800  00000-0  30089-4 0    07
2 29658  98.1658 130.7851 0002000  73.3233 286.6765 15.27173162    02
Epoch (UTC): 27 March 2017 19:34:25
Eccentricity: 0.0002000
inclination: 98.1658°
perigee height: 483 km
apogee height: 485 km
right ascension of ascending node: 130.7851°
argument of perigee: 73.3233°
revolutions per day: 15.27173162
mean anomaly at epoch: 286.6765°
orbit number at epoch: 0

The dashed part of the orbit path shows where the satellite is in the earth's shadow,  

DLR